This is the latest recevied weather packets stored in our database for station/object KC4BAM. If no packets are shown the sender has not sent any weather packets the latest 10 day(s).
| Time | Temp. | Humidity | Pressure | Rain* | Wind** | Luminosity | Snow |
|---|---|---|---|---|---|---|---|
| 1778107564 | 12.78° C | 93% | 1005.1 hPa | 0 mm | - | 17 W/m² | - |
| 1778107261 | 12.78° C | 93% | 1004.9 hPa | 0 mm | - | 18 W/m² | - |
| 1778106957 | 12.78° C | 93% | 1005 hPa | 0 mm | - | 24 W/m² | - |
| 1778106653 | 12.78° C | 93% | 1005.1 hPa | 1.78 mm | - | 26 W/m² | - |
| 1778106350 | 12.78° C | 93% | 1005.1 hPa | 0 mm | - | 33 W/m² | - |
| 1778106047 | 12.78° C | 93% | 1005 hPa | 1.27 mm | - | 33 W/m² | - |
| 1778105744 | 12.78° C | 93% | 1004.9 hPa | 1.78 mm | - | 33 W/m² | - |
| 1778105442 | 12.78° C | 92% | 1004.7 hPa | 1.78 mm | - | 32 W/m² | - |
| 1778105138 | 12.78° C | 92% | 1004.9 hPa | 0 mm | - | 27 W/m² | - |
| 1778104833 | 12.78° C | 92% | 1004.7 hPa | 1.27 mm | - | 24 W/m² | - |
| 1778104531 | 12.78° C | 92% | 1004.3 hPa | 3.05 mm | - | 26 W/m² | - |
| 1778104226 | 13.33° C | 92% | 1004.2 hPa | 3.05 mm | - | 32 W/m² | - |
| 1778103923 | 13.33° C | 91% | 1004.7 hPa | 1.27 mm | - | 40 W/m² | - |
| 1778103620 | 13.33° C | 91% | 1005.2 hPa | 1.78 mm | - | 31 W/m² | - |
| 1778103319 | 13.33° C | 91% | 1004.8 hPa | 1.78 mm | - | 28 W/m² | - |
| 1778103015 | 13.33° C | 90% | 1004.8 hPa | 0 mm | - | 32 W/m² | - |
| 1778102712 | 13.33° C | 91% | 1004.3 hPa | 1.27 mm | - | 45 W/m² | - |
| 1778102407 | 13.89° C | 91% | 1004.5 hPa | 1.27 mm | - | 54 W/m² | - |
| 1778102103 | 13.89° C | 91% | 1004.5 hPa | 0 mm | - | 53 W/m² | - |
| 1778101800 | 13.89° C | 90% | 1004.4 hPa | 0 mm | - | 49 W/m² | - |
| 1778101496 | 14.44° C | 90% | 1003.9 hPa | 0 mm | - | 58 W/m² | - |
| 1778101194 | 13.89° C | 91% | 1003.9 hPa | 0 mm | - | 130 W/m² | - |
| 1778100890 | 13.89° C | 90% | 1003.7 hPa | 1.78 mm | - | 107 W/m² | - |
| 1778100586 | 13.89° C | 90% | 1004 hPa | 1.78 mm | - | 77 W/m² | - |
| 1778100284 | 13.89° C | 90% | 1004.2 hPa | 0 mm | - | 55 W/m² | - |
* Rain latest hour (hover to see other rain measurements)
** Current wind speed in m/s (hover to see current wind gust speed)